Location: Arroyo Grande
(40.2671°N, 4.2512°W)
Time: 15:17:43
(UTC+00:00)

Cosmos 883 Rocket - Pass Details

Date: 03 February 2023
Orbit: 950 x 995 km, 83.0° (Epoch: 22 March)

Event Time Altitude Azimuth Distance (km) Brightness Sun altitude
Rises 19:52:11 0° 185° (S) 3,652 7.6 -25.9°
Reaches altitude 10° 19:54:40 10° 185° (S) 2,715 6.9 -26.4°
Maximum altitude 20:00:55 89° 98° (E) 990 4.4 -27.6°
Drops below altitude 10° 20:07:16 10° 7° (N) 2,760 6.8 -28.8°
Sets 20:09:49 0° 8° (N) 3,717 7.5 -29.3°
